Sheboygan, WI

3:03 AM CDT on October 19, 2017 (GMT -0500)
Sheboygan County Memorial

Weather History for KSBM - October, 2012

Change the Weather History Date:

Monday, October 1, 2012

  Actual Average Record
Temperature  
Mean Temperature 52 °F -  
Max Temperature 66 °F 66 °F 87 °F (1971)
Min Temperature 37 °F 48 °F 30 °F (2003)
Degree Days  
Heating Degree Days 14    
Growing Degree Days 2 (Base 50)    
Moisture  
Dew Point 42 °F    
Average Humidity 76    
Maximum Humidity 93    
Minimum Humidity 37    
Precipitation  
Precipitation 0.00 in - - ()
Sea Level Pressure  
Sea Level Pressure 29.91 in    
Wind  
Wind Speed 1 mph (South)    
Max Wind Speed 9 mph    
Max Gust Speed -    
Visibility 8 miles    
Events      
Averages and records for this station are not official NWS values.
T = Trace of Precipitation, MM = Missing Value Source: NWS Daily Summary

Daily Weather History Graph

Daily Weather History Graph

Search for Another Location

Airport or City:

Trip Planner

Search our weather history database for the weather conditions in past years. The results will help you decide how hot, cold, wet, or windy it might be!

Date:

Astronomy

Oct. 01, 2012 Rise Set
Actual Time 6:49 AM CDT 6:31 PM CDT
Civil Twilight 6:20 AM CDT 7:00 PM CDT
Nautical Twilight 5:47 AM CDT 7:33 PM CDT
Astronomical Twilight 5:13 AM CDT 8:06 PM CDT
Moon 7:02 PM CDT (10/1) 8:23 AM CDT (10/1)
Length of Visible Light 12h 39m
Length of Day
11h 41m
Full, 98% of the Moon is Illuminated
Oct 1
Full
Oct 8
Last Quarter
Oct 15
New
Oct 21
First Quarter
Oct 29
Full

Hourly Weather History & Observations

Time (CDT) Temp. Windchill Dew Point Humidity Pressure Visibility Wind Dir Wind Speed Gust Speed Precip Events Conditions
12:33 AM 42.8 °F - 39.2 °F 87% 29.95 in 1.5 mi Calm Calm - N/A   Partly Cloudy
12:41 AM 41.0 °F - 39.2 °F 93% 29.95 in 1.0 mi Calm Calm - N/A   Mist
12:44 AM 39.2 °F - 37.4 °F 93% 29.95 in 2.5 mi Calm Calm - N/A   Clear
12:51 AM 39.2 °F - 37.4 °F 93% 29.95 in 9.0 mi Calm Calm - N/A   Clear
12:53 AM 39.9 °F - 37.0 °F 89% 29.96 in 10.0 mi Calm Calm - N/A   Clear
1:53 AM 39.9 °F - 37.9 °F 93% 29.96 in 7.0 mi Calm Calm - N/A   Clear
2:53 AM 41.0 °F 39.0 °F 39.0 °F 93% 29.94 in 8.0 mi West 3.5 mph - N/A   Clear
4:53 AM 37.9 °F - 36.0 °F 93% 29.92 in 10.0 mi Calm Calm - N/A   Clear
5:53 AM 39.0 °F - 37.0 °F 93% 29.93 in 8.0 mi Calm Calm - N/A   Clear
6:53 AM 37.9 °F 35.5 °F 36.0 °F 93% 29.94 in 6.0 mi WSW 3.5 mph - N/A   Partly Cloudy
7:53 AM 45.0 °F - 43.0 °F 93% 29.95 in 8.0 mi Calm Calm - N/A   Clear
8:53 AM 54.0 °F - 50.0 °F 86% 29.95 in 10.0 mi Calm Calm - N/A   Clear
9:53 AM 60.1 °F - 50.0 °F 69% 29.95 in 10.0 mi SSW 4.6 mph - N/A   Clear
10:53 AM 63.0 °F - 44.1 °F 50% 29.94 in 10.0 mi WSW 5.8 mph - N/A   Clear
11:53 AM 64.0 °F - 42.1 °F 45% 29.92 in - Calm Calm - N/A   Clear
12:53 PM 64.9 °F - 41.0 °F 42% 29.90 in 10.0 mi SSW 3.5 mph - N/A   Clear
1:53 PM 66.9 °F - 39.9 °F 37% 29.88 in 10.0 mi Variable 5.8 mph - N/A   Clear
2:53 PM 66.0 °F - 46.0 °F 48% 29.86 in 10.0 mi East 9.2 mph - N/A   Clear
3:53 PM 64.0 °F - 46.0 °F 52% 29.86 in 10.0 mi SE 6.9 mph - N/A   Clear
4:53 PM 62.1 °F - 46.0 °F 56% 29.86 in 10.0 mi SE 4.6 mph - N/A   Clear
5:53 PM 60.1 °F - 46.0 °F 60% 29.87 in 10.0 mi SSE 3.5 mph - N/A   Clear
6:53 PM 57.9 °F - 48.0 °F 70% 29.88 in 10.0 mi Calm Calm - N/A   Clear
7:53 PM 53.1 °F - 46.0 °F 77% 29.88 in 10.0 mi Calm Calm - N/A   Clear
8:53 PM 48.9 °F - 46.0 °F 90% 29.88 in 10.0 mi Calm Calm - N/A   Clear
9:53 PM 48.9 °F - 46.0 °F 90% 29.87 in 10.0 mi Calm Calm - N/A   Clear
11:53 PM 46.9 °F - 44.1 °F 90% 29.87 in 10.0 mi Calm Calm - N/A   Clear